Overview Statistics Trail Chart Weather Telemetry Raw packets
 

This is the latest recevied weather packets stored in our database for station/object DB7GV-8. If no packets are shown the sender has not sent any weather packets the latest 10 day(s).

<< 26 27 28 29 30 31 32 >>
Time Temp. Humidity Pressure Rain* Wind** Luminosity Snow
1777085665 3.89° C 67% 1019.1 hPa - - - -
1777084759 3.89° C 66% 1019.1 hPa - - - -
1777083854 4.44° C 66% 1019.2 hPa - - - -
1777082948 4.44° C 65% 1019.1 hPa - - - -
1777082043 4.44° C 65% 1019.2 hPa - - - -
1777081137 4.44° C 64% 1019.1 hPa - - - -
1777080232 5° C 64% 1019.2 hPa - - - -
1777079326 5° C 63% 1019.3 hPa - - - -
1777078421 5° C 63% 1019.2 hPa - - - -
1777077515 5.56° C 62% 1019.3 hPa - - - -
1777075704 6.11° C 61% 1019.5 hPa - - - -
1777074800 6.67° C 60% 1019.6 hPa - - - -
1777073894 6.67° C 59% 1019.6 hPa - - - -
1777072988 6.67° C 58% 1019.7 hPa - - - -
1777072084 7.22° C 57% 1019.7 hPa - - - -
1777071177 7.78° C 56% 1019.7 hPa - - - -
1777070272 7.78° C 56% 1019.7 hPa - - - -
1777069367 8.33° C 55% 1019.6 hPa - - - -
1777068462 8.89° C 54% 1019.5 hPa - - - -
1777067556 8.89° C 54% 1019.5 hPa - - - -
1777066651 9.44° C 53% 1019.6 hPa - - - -
1777065745 10° C 53% 1019.5 hPa - - - -
1777064840 10° C 52% 1019.5 hPa - - - -
1777063934 10.56° C 50% 1019.4 hPa - - - -
1777063029 11.11° C 50% 1019.3 hPa - - - -

* Rain since midnight (hover to see other rain measurements)
** Current wind speed in m/s (hover to see current wind gust speed)